User: anonymous   Login
Location: Roc des P�zouls
(43.9667°N, 3.5500°E)
Time: 00:11:51
(UTC+00:00)
Language:

STARLINK-80 - Orbit

View from above orbital plane
View from above orbital plane
View from above satellite
View from above satellite

Ground track
Ground track

The orbit data is extracted from the following two-line orbital elements,

1 44282U 19029AZ  20028.69079157  .00002894  00000-0  13121-3 0  9991
2 44282  53.0191 103.8059 0005409 150.8244 209.3055 15.24114125 38134
Epoch (UTC): 28 January 2020 16:34:44
Eccentricity: 0.0005409
inclination: 53.0191°
perigee height: 490 km
apogee height: 497 km
right ascension of ascending node: 103.8059°
argument of perigee: 150.8244°
revolutions per day: 15.24114125
mean anomaly at epoch: 209.3055°
orbit number at epoch: 3813

The dashed part of the orbit path shows where the satellite is in the earth's shadow,  

DLR